PGT721 OJAI-LTFJ

Flight info

Callsign PGT721
Flight time 2h 30m
Altitude 34000
Route OJAI/08R LOSI1A LOSIL M319 ULINA B411 KARIK L550 PASOS DCT TEZAK L324 SAFTA DCT TOMBI UA16 EKSEN UL610 ETAMP ETAM1H LTFJ/24L
Aircraft A320/M-SDE3FGHIRWY/LB1

Departure

Time 2026-05-08 06:37
Airport Queen Alia International Airport (OJAI)

Arrival

Time 2026-05-08 09:08
Airport Istanbul Sabiha Gökçen International Airport (LTFJ)
Time Latitude Longitude Altitude Speed Heading
2026-05-08 05:37 31.72094 35.98938 2409 ft 0 kts 351°
2026-05-08 06:23 31.72081 35.98941 2409 ft 2 kts 351°
2026-05-08 06:23 31.72065 35.98944 2409 ft 2 kts 351°
2026-05-08 06:23 31.72049 35.98947 2409 ft 2 kts 351°
2026-05-08 06:24 31.72033 35.98950 2409 ft 2 kts 347°
2026-05-08 06:24 31.72018 35.98958 2408 ft 2 kts 312°
2026-05-08 06:24 31.72009 35.98973 2409 ft 2 kts 272°
2026-05-08 06:24 31.72011 35.98989 2409 ft 0 kts 261°
2026-05-08 06:29 31.72010 35.98985 2409 ft 2 kts 260°
2026-05-08 06:30 31.72005 35.98949 2409 ft 8 kts 260°
2026-05-08 06:30 31.71992 35.98856 2409 ft 14 kts 260°
2026-05-08 06:30 31.71974 35.98731 2411 ft 16 kts 260°
2026-05-08 06:30 31.71958 35.98627 2407 ft 8 kts 257°
2026-05-08 06:31 31.71906 35.98590 2409 ft 10 kts 178°
2026-05-08 06:31 31.71845 35.98600 2409 ft 8 kts 171°
2026-05-08 06:31 31.71800 35.98581 2409 ft 8 kts 226°
2026-05-08 06:31 31.71783 35.98502 2410 ft 13 kts 261°
2026-05-08 06:32 31.71763 35.98370 2409 ft 19 kts 260°
2026-05-08 06:32 31.71738 35.98194 2409 ft 23 kts 260°
2026-05-08 06:32 31.71724 35.98102 2409 ft 7 kts 261°
2026-05-08 06:32 31.71717 35.98055 2409 ft 6 kts 255°
2026-05-08 06:33 31.71680 35.98019 2409 ft 6 kts 192°
2026-05-08 06:33 31.71639 35.98023 2410 ft 6 kts 171°
2026-05-08 06:33 31.71591 35.98033 2410 ft 7 kts 170°
2026-05-08 06:33 31.71564 35.98038 2409 ft 0 kts 170°
2026-05-08 06:35 31.71543 35.98042 2409 ft 8 kts 170°
2026-05-08 06:35 31.71467 35.98057 2410 ft 9 kts 171°
2026-05-08 06:35 31.71443 35.98086 2408 ft 4 kts 84°
2026-05-08 06:35 31.71445 35.98093 2408 ft 0 kts 80°
2026-05-08 06:36 31.71457 35.98180 2409 ft 41 kts 80°
2026-05-08 06:36 31.71542 35.98777 2411 ft 106 kts 80°
2026-05-08 06:36 31.71697 35.99844 2411 ft 157 kts 81°
2026-05-08 06:37 31.71897 36.01256 2553 ft 187 kts 81°
2026-05-08 06:37 31.72105 36.02767 3253 ft 186 kts 81°
2026-05-08 06:37 31.72320 36.04289 3659 ft 200 kts 80°
2026-05-08 06:37 31.72574 36.06041 3834 ft 230 kts 80°
2026-05-08 06:38 31.72800 36.07972 4290 ft 244 kts 91°
2026-05-08 06:38 31.72241 36.09828 5046 ft 247 kts 129°
2026-05-08 06:38 31.70811 36.10945 5721 ft 257 kts 162°
2026-05-08 06:38 31.68990 36.11302 6266 ft 271 kts 175°
2026-05-08 06:39 31.67092 36.11427 7045 ft 274 kts 176°
2026-05-08 06:39 31.65174 36.11546 7815 ft 278 kts 176°
2026-05-08 06:39 31.63231 36.11664 8587 ft 281 kts 176°
2026-05-08 06:39 31.61287 36.11923 9363 ft 282 kts 169°
2026-05-08 06:40 31.59364 36.12414 10089 ft 284 kts 166°
2026-05-08 06:40 31.57438 36.13007 10786 ft 289 kts 166°
2026-05-08 06:40 31.55474 36.13635 11396 ft 295 kts 166°
2026-05-08 06:40 31.53470 36.14265 12056 ft 300 kts 167°
2026-05-08 06:41 31.51431 36.14883 12699 ft 305 kts 168°
2026-05-08 06:41 31.49363 36.15333 13311 ft 309 kts 178°
2026-05-08 06:41 31.47141 36.15366 13444 ft 330 kts 182°
2026-05-08 06:41 31.44770 36.15330 13592 ft 350 kts 182°
2026-05-08 06:42 31.42266 36.15280 13718 ft 370 kts 182°
2026-05-08 06:42 31.39628 36.15227 13864 ft 387 kts 182°
2026-05-08 06:42 31.36898 36.15180 14262 ft 395 kts 182°
2026-05-08 06:42 31.34129 36.15138 14783 ft 400 kts 182°
2026-05-08 06:43 31.31335 36.15099 15302 ft 404 kts 182°
2026-05-08 06:43 31.28512 36.15064 15809 ft 407 kts 182°
2026-05-08 06:43 31.25668 36.15032 16299 ft 411 kts 182°
2026-05-08 06:43 31.22795 36.14996 16775 ft 414 kts 182°
2026-05-08 06:44 31.19913 36.14732 17234 ft 416 kts 191°
2026-05-08 06:44 31.17102 36.13903 17690 ft 417 kts 201°
2026-05-08 06:44 31.14448 36.12525 18140 ft 418 kts 211°
2026-05-08 06:44 31.12031 36.10646 18573 ft 418 kts 220°
2026-05-08 06:45 31.09853 36.08443 18998 ft 421 kts 223°
2026-05-08 06:45 31.07644 36.06182 19435 ft 424 kts 223°
2026-05-08 06:45 31.05419 36.03911 19862 ft 426 kts 223°
2026-05-08 06:45 31.03151 36.01597 20282 ft 429 kts 223°
2026-05-08 06:46 31.00930 35.99329 20691 ft 431 kts 223°
2026-05-08 06:46 30.98664 35.97013 21056 ft 435 kts 223°
2026-05-08 06:46 30.96381 35.94679 21425 ft 437 kts 223°
2026-05-08 06:46 30.94089 35.92339 21791 ft 440 kts 223°
2026-05-08 06:47 30.91777 35.89989 22155 ft 442 kts 223°
2026-05-08 06:47 30.89453 35.87634 22509 ft 444 kts 223°
2026-05-08 06:47 30.87118 35.85274 22862 ft 446 kts 223°
2026-05-08 06:47 30.84772 35.82900 23196 ft 448 kts 223°
2026-05-08 06:48 30.82398 35.80536 23517 ft 451 kts 220°
2026-05-08 06:48 30.79785 35.78492 23840 ft 455 kts 211°
2026-05-08 06:48 30.76971 35.76761 24159 ft 458 kts 210°
2026-05-08 06:48 30.74143 35.75047 24471 ft 460 kts 210°
2026-05-08 06:49 30.71293 35.73325 24771 ft 461 kts 210°
2026-05-08 06:49 30.68445 35.71602 25057 ft 463 kts 210°
2026-05-08 06:49 30.65621 35.69891 25326 ft 464 kts 210°
2026-05-08 06:49 30.62752 35.68151 25592 ft 466 kts 210°
2026-05-08 06:50 30.59877 35.66405 25856 ft 468 kts 210°
2026-05-08 06:50 30.56990 35.64649 26117 ft 469 kts 210°
2026-05-08 06:50 30.54088 35.62883 26377 ft 471 kts 210°
2026-05-08 06:50 30.51182 35.61118 26644 ft 472 kts 210°
2026-05-08 06:51 30.48273 35.59360 27010 ft 471 kts 210°
2026-05-08 06:51 30.45372 35.57614 27363 ft 469 kts 210°
2026-05-08 06:51 30.42476 35.55872 27707 ft 469 kts 210°
2026-05-08 06:51 30.39583 35.54130 28055 ft 468 kts 210°
2026-05-08 06:52 30.36699 35.52395 28399 ft 467 kts 210°
2026-05-08 06:52 30.33819 35.50661 28752 ft 466 kts 210°
2026-05-08 06:52 30.30947 35.48931 29101 ft 465 kts 210°
2026-05-08 06:52 30.28084 35.47207 29431 ft 464 kts 210°
2026-05-08 06:53 30.25224 35.45484 29759 ft 463 kts 210°
2026-05-08 06:53 30.22356 35.43788 30083 ft 463 kts 206°
2026-05-08 06:53 30.19337 35.42470 30415 ft 465 kts 200°
2026-05-08 06:53 30.16257 35.41330 30726 ft 465 kts 200°
2026-05-08 06:54 30.13174 35.40192 31034 ft 465 kts 200°
2026-05-08 06:54 30.10098 35.39055 31320 ft 464 kts 200°
2026-05-08 06:54 30.07018 35.37916 31602 ft 464 kts 200°
2026-05-08 06:54 30.03943 35.36780 31872 ft 465 kts 200°
2026-05-08 06:55 30.00860 35.35643 32134 ft 465 kts 200°
2026-05-08 06:55 29.97822 35.34524 32394 ft 465 kts 200°
2026-05-08 06:55 29.94735 35.33387 32636 ft 466 kts 201°
2026-05-08 06:55 29.91641 35.32243 32859 ft 467 kts 201°
2026-05-08 06:56 29.88545 35.31099 33092 ft 467 kts 201°
2026-05-08 06:56 29.85448 35.29955 33332 ft 468 kts 201°
2026-05-08 06:56 29.82350 35.28811 33577 ft 468 kts 201°
2026-05-08 06:56 29.79249 35.27668 33795 ft 468 kts 201°
2026-05-08 06:57 29.76141 35.26523 33990 ft 470 kts 201°
2026-05-08 06:57 29.73025 35.25378 34058 ft 470 kts 201°
2026-05-08 06:57 29.66784 35.23094 34073 ft 471 kts 201°
2026-05-08 06:58 29.60642 35.20546 34072 ft 466 kts 212°
2026-05-08 06:58 29.55523 35.16182 34083 ft 454 kts 232°
2026-05-08 06:59 29.51461 35.10731 34085 ft 452 kts 234°
2026-05-08 06:59 29.47378 35.05217 34081 ft 453 kts 235°
2026-05-08 07:00 29.43860 34.99313 34083 ft 441 kts 252°
2026-05-08 07:00 29.42429 34.92618 34081 ft 428 kts 272°
2026-05-08 07:01 29.42953 34.85926 34080 ft 420 kts 283°
2026-05-08 07:01 29.44139 34.79442 34081 ft 414 kts 294°
2026-05-08 07:02 29.47018 34.73839 34080 ft 406 kts 313°
2026-05-08 07:02 29.51235 34.69560 34083 ft 405 kts 321°
2026-05-08 07:03 29.55589 34.65462 34084 ft 404 kts 320°
2026-05-08 07:03 29.59117 34.60464 34085 ft 407 kts 300°
2026-05-08 07:04 29.60557 34.55283 34080 ft 417 kts 282°
2026-05-08 07:04 29.60693 34.48555 34083 ft 422 kts 275°
2026-05-08 07:05 29.60691 34.41822 34072 ft 421 kts 276°
2026-05-08 07:05 29.60687 34.35088 34073 ft 421 kts 275°
2026-05-08 07:06 29.61126 34.28456 34065 ft 410 kts 290°
2026-05-08 07:06 29.62154 34.25430 34063 ft 404 kts 302°
2026-05-08 07:06 29.63701 34.22772 34059 ft 399 kts 313°
2026-05-08 07:07 29.68011 34.18870 34062 ft 397 kts 331°
2026-05-08 07:07 29.72894 34.15903 34067 ft 397 kts 331°
2026-05-08 07:08 29.77743 34.12949 34059 ft 396 kts 331°
2026-05-08 07:08 29.82618 34.09971 34064 ft 396 kts 331°
2026-05-08 07:09 29.87491 34.06999 34063 ft 396 kts 331°
2026-05-08 07:09 29.92356 34.04035 34059 ft 396 kts 331°
2026-05-08 07:10 29.97214 34.01062 34067 ft 395 kts 331°
2026-05-08 07:10 30.02075 33.98087 34070 ft 396 kts 331°
2026-05-08 07:11 30.06934 33.95110 34071 ft 394 kts 331°
2026-05-08 07:11 30.11780 33.92117 34072 ft 395 kts 331°
2026-05-08 07:12 30.16600 33.89153 34082 ft 394 kts 331°
2026-05-08 07:12 30.21453 33.86176 34084 ft 395 kts 331°
2026-05-08 07:13 30.26309 33.83189 34091 ft 395 kts 331°
2026-05-08 07:13 30.31163 33.80189 34098 ft 395 kts 331°
2026-05-08 07:14 30.36014 33.77190 34099 ft 395 kts 331°
2026-05-08 07:14 30.40873 33.74196 34102 ft 396 kts 331°
2026-05-08 07:15 30.45700 33.71212 34107 ft 396 kts 331°
2026-05-08 07:15 30.50552 33.68201 34109 ft 395 kts 331°
2026-05-08 07:16 30.55406 33.65196 34110 ft 396 kts 331°
2026-05-08 07:16 30.60273 33.62182 34108 ft 395 kts 331°
2026-05-08 07:17 30.65130 33.59163 34111 ft 395 kts 331°
2026-05-08 07:17 30.69975 33.56144 34110 ft 395 kts 331°
2026-05-08 07:18 30.74831 33.53117 34109 ft 396 kts 331°
2026-05-08 07:18 30.79692 33.50088 34108 ft 396 kts 331°
2026-05-08 07:19 30.84527 33.47066 34112 ft 396 kts 331°
2026-05-08 07:19 30.89382 33.44021 34110 ft 396 kts 331°
2026-05-08 07:20 30.94244 33.40980 34107 ft 397 kts 331°
2026-05-08 07:20 30.99116 33.37927 34110 ft 397 kts 331°
2026-05-08 07:21 31.03982 33.34873 34108 ft 398 kts 331°
2026-05-08 07:21 31.08821 33.31829 34114 ft 398 kts 331°
2026-05-08 07:22 31.13692 33.28774 34120 ft 397 kts 331°
2026-05-08 07:22 31.18556 33.25711 34117 ft 397 kts 331°
2026-05-08 07:23 31.23429 33.22638 34119 ft 397 kts 331°
2026-05-08 07:23 31.28295 33.19569 34119 ft 398 kts 331°
2026-05-08 07:24 31.33162 33.16492 34118 ft 397 kts 331°
2026-05-08 07:24 31.38350 33.14331 34119 ft 400 kts 348°
2026-05-08 07:25 31.43931 33.13921 34119 ft 402 kts 354°
2026-05-08 07:26 31.52302 33.13496 34120 ft 403 kts 354°
2026-05-08 07:26 31.57912 33.13206 34129 ft 404 kts 354°
2026-05-08 07:27 31.63531 33.12925 34128 ft 404 kts 354°
2026-05-08 07:27 31.69151 33.12643 34128 ft 404 kts 354°
2026-05-08 07:28 31.74775 33.12366 34128 ft 404 kts 354°
2026-05-08 07:28 31.80404 33.12087 34127 ft 405 kts 354°
2026-05-08 07:29 31.86040 33.11800 34127 ft 405 kts 354°
2026-05-08 07:29 31.91639 33.11518 34128 ft 405 kts 354°
2026-05-08 07:30 31.97276 33.11238 34127 ft 405 kts 354°
2026-05-08 07:30 32.02911 33.10958 34128 ft 405 kts 354°
2026-05-08 07:31 32.08553 33.10668 34129 ft 406 kts 354°
2026-05-08 07:31 32.14202 33.10380 34128 ft 405 kts 354°
2026-05-08 07:32 32.19761 33.09623 34129 ft 400 kts 342°
2026-05-08 07:32 32.24721 33.06757 34316 ft 399 kts 323°
2026-05-08 07:32 32.26819 33.04667 34619 ft 398 kts 320°
2026-05-08 07:33 32.28897 33.02511 34912 ft 397 kts 320°
2026-05-08 07:33 32.30980 33.00356 35203 ft 396 kts 320°
2026-05-08 07:33 32.33052 32.98213 35474 ft 395 kts 320°
2026-05-08 07:33 32.35116 32.96080 35720 ft 394 kts 320°
2026-05-08 07:34 32.37177 32.93946 35966 ft 393 kts 320°
2026-05-08 07:34 32.39235 32.91808 36098 ft 394 kts 320°
2026-05-08 07:34 32.41297 32.89661 36129 ft 395 kts 320°
2026-05-08 07:35 32.45432 32.85362 36127 ft 396 kts 320°
2026-05-08 07:35 32.49566 32.81072 36127 ft 395 kts 320°
2026-05-08 07:36 32.53659 32.76808 36123 ft 394 kts 320°
2026-05-08 07:36 32.57765 32.72511 36133 ft 393 kts 320°
2026-05-08 07:37 32.61863 32.68225 36129 ft 393 kts 320°
2026-05-08 07:37 32.65954 32.63933 36142 ft 392 kts 320°
2026-05-08 07:38 32.70039 32.59661 36145 ft 391 kts 320°
2026-05-08 07:38 32.74118 32.55387 36146 ft 391 kts 320°
2026-05-08 07:39 32.78188 32.51117 36148 ft 390 kts 320°
2026-05-08 07:39 32.82246 32.46844 36146 ft 389 kts 320°
2026-05-08 07:40 32.86271 32.42597 36149 ft 389 kts 320°
2026-05-08 07:40 32.90319 32.38336 36150 ft 388 kts 320°
2026-05-08 07:41 32.94358 32.34069 36150 ft 388 kts 320°
2026-05-08 07:41 32.98389 32.29810 36150 ft 387 kts 320°
2026-05-08 07:42 33.02410 32.25544 36151 ft 386 kts 320°
2026-05-08 07:42 33.06432 32.21290 36152 ft 386 kts 320°
2026-05-08 07:43 33.10437 32.17037 36152 ft 385 kts 320°
2026-05-08 07:43 33.14399 32.12821 36147 ft 384 kts 320°
2026-05-08 07:44 33.18383 32.08582 36147 ft 384 kts 320°
2026-05-08 07:44 33.22370 32.04346 36128 ft 383 kts 320°
2026-05-08 07:45 33.26347 32.00100 36136 ft 383 kts 320°
2026-05-08 07:45 33.30309 31.95868 36153 ft 381 kts 320°
2026-05-08 07:46 33.34256 31.91645 36161 ft 380 kts 320°
2026-05-08 07:46 33.38187 31.87436 36159 ft 378 kts 320°
2026-05-08 07:47 33.42082 31.83256 36163 ft 378 kts 320°
2026-05-08 07:47 33.46131 31.79277 36157 ft 375 kts 329°
2026-05-08 07:48 33.50961 31.76978 36152 ft 375 kts 341°
2026-05-08 07:48 33.55954 31.75191 36146 ft 375 kts 341°
2026-05-08 07:49 33.60952 31.73388 36142 ft 375 kts 341°
2026-05-08 07:49 33.65962 31.71563 36144 ft 376 kts 341°
2026-05-08 07:50 33.70970 31.69738 36131 ft 375 kts 341°
2026-05-08 07:50 33.75975 31.67916 36143 ft 376 kts 341°
2026-05-08 07:51 33.80982 31.66090 36145 ft 376 kts 341°
2026-05-08 07:51 33.85987 31.64265 36144 ft 375 kts 341°
2026-05-08 07:52 33.90960 31.62455 36144 ft 375 kts 341°
2026-05-08 07:52 33.95965 31.60627 36135 ft 375 kts 341°
2026-05-08 07:53 34.00963 31.58794 36134 ft 375 kts 340°
2026-05-08 07:53 34.05119 31.57267 36142 ft 375 kts 341°
2026-05-08 07:54 34.10108 31.55436 36143 ft 374 kts 340°
2026-05-08 07:54 34.15103 31.53595 36136 ft 376 kts 340°
2026-05-08 07:55 34.20102 31.51760 36146 ft 375 kts 340°
2026-05-08 07:55 34.25096 31.49924 36148 ft 375 kts 340°
2026-05-08 07:56 34.30088 31.48082 36144 ft 374 kts 340°
2026-05-08 07:56 34.35077 31.46248 36145 ft 374 kts 340°
2026-05-08 07:57 34.40032 31.44413 36132 ft 375 kts 340°
2026-05-08 07:57 34.45025 31.42564 36136 ft 375 kts 340°
2026-05-08 07:58 34.50017 31.40711 36133 ft 375 kts 340°
2026-05-08 07:58 34.55015 31.38860 36133 ft 375 kts 340°
2026-05-08 07:59 34.60012 31.36998 36131 ft 375 kts 340°
2026-05-08 07:59 34.64982 31.35151 36142 ft 375 kts 340°
2026-05-08 08:00 34.69977 31.33292 36129 ft 375 kts 340°
2026-05-08 08:00 34.74968 31.31421 36140 ft 375 kts 340°
2026-05-08 08:01 34.79966 31.29549 36143 ft 376 kts 339°
2026-05-08 08:01 34.84973 31.27686 36147 ft 376 kts 340°
2026-05-08 08:02 34.89977 31.25820 36148 ft 376 kts 340°
2026-05-08 08:02 34.94979 31.23941 36148 ft 376 kts 340°
2026-05-08 08:03 34.99945 31.22072 36149 ft 376 kts 339°
2026-05-08 08:03 35.04960 31.20192 36149 ft 377 kts 339°
2026-05-08 08:04 35.09974 31.18307 36153 ft 377 kts 339°
2026-05-08 08:04 35.14996 31.16414 36156 ft 377 kts 339°
2026-05-08 08:05 35.20019 31.14522 36160 ft 378 kts 339°
2026-05-08 08:05 35.25036 31.12624 36158 ft 377 kts 339°
2026-05-08 08:06 35.30025 31.10741 36158 ft 377 kts 339°
2026-05-08 08:06 35.35041 31.08846 36155 ft 377 kts 339°
2026-05-08 08:07 35.40044 31.06943 36151 ft 376 kts 339°
2026-05-08 08:07 35.45039 31.05036 36145 ft 375 kts 339°
2026-05-08 08:08 35.50037 31.03129 36134 ft 376 kts 339°
2026-05-08 08:08 35.55007 31.01238 36139 ft 375 kts 339°
2026-05-08 08:09 35.60001 30.99335 36130 ft 376 kts 339°
2026-05-08 08:09 35.65001 30.97429 36146 ft 376 kts 339°
2026-05-08 08:10 35.69995 30.95523 36142 ft 376 kts 339°
2026-05-08 08:10 35.74996 30.93620 36142 ft 377 kts 339°
2026-05-08 08:11 35.80008 30.91702 36152 ft 377 kts 339°
2026-05-08 08:11 35.85025 30.89769 36155 ft 378 kts 339°
2026-05-08 08:12 35.90008 30.87850 36159 ft 378 kts 339°
2026-05-08 08:12 35.95032 30.85926 36160 ft 378 kts 339°
2026-05-08 08:13 36.00060 30.83994 36160 ft 378 kts 339°
2026-05-08 08:13 36.05183 30.82434 36157 ft 385 kts 349°
2026-05-08 08:14 36.10577 30.82224 36158 ft 389 kts 352°
2026-05-08 08:14 36.15979 30.82061 36155 ft 388 kts 352°
2026-05-08 08:15 36.21346 30.81881 36149 ft 387 kts 352°
2026-05-08 08:15 36.26770 30.81688 36149 ft 388 kts 351°
2026-05-08 08:16 36.32135 30.81501 36148 ft 389 kts 352°
2026-05-08 08:16 36.37575 30.81321 36149 ft 388 kts 352°
2026-05-08 08:17 36.42940 30.81143 36131 ft 388 kts 352°
2026-05-08 08:17 36.48205 30.80967 36129 ft 388 kts 352°
2026-05-08 08:18 36.53612 30.80777 36132 ft 389 kts 351°
2026-05-08 08:18 36.59025 30.80585 36145 ft 389 kts 352°
2026-05-08 08:19 36.64452 30.80402 36140 ft 390 kts 352°
2026-05-08 08:19 36.69887 30.80216 36146 ft 390 kts 352°
2026-05-08 08:20 36.75280 30.80030 36145 ft 390 kts 352°
2026-05-08 08:20 36.80713 30.79848 36143 ft 390 kts 352°
2026-05-08 08:21 36.86147 30.79650 36143 ft 390 kts 351°
2026-05-08 08:21 36.91581 30.79455 36147 ft 390 kts 351°
2026-05-08 08:22 36.96979 30.78996 36138 ft 387 kts 348°
2026-05-08 08:22 37.02339 30.78256 36147 ft 387 kts 347°
2026-05-08 08:23 37.07700 30.77509 36149 ft 388 kts 348°
2026-05-08 08:23 37.13075 30.76823 36148 ft 388 kts 348°
2026-05-08 08:24 37.18425 30.76160 36152 ft 388 kts 348°
2026-05-08 08:24 37.23806 30.75504 36160 ft 389 kts 348°
2026-05-08 08:25 37.29184 30.74831 36160 ft 388 kts 348°
2026-05-08 08:25 37.34560 30.74157 36168 ft 388 kts 348°
2026-05-08 08:26 37.39941 30.73478 36186 ft 389 kts 348°
2026-05-08 08:26 37.45321 30.72767 36190 ft 388 kts 347°
2026-05-08 08:27 37.50697 30.71964 36190 ft 389 kts 347°
2026-05-08 08:27 37.56046 30.71163 36205 ft 389 kts 347°
2026-05-08 08:28 37.61438 30.70401 36219 ft 390 kts 348°
2026-05-08 08:28 37.66844 30.69740 36232 ft 390 kts 348°
2026-05-08 08:29 37.72242 30.69110 36243 ft 390 kts 348°
2026-05-08 08:29 37.77640 30.68456 36245 ft 389 kts 348°
2026-05-08 08:30 37.82976 30.67796 36248 ft 387 kts 348°
2026-05-08 08:30 37.90853 30.66035 36241 ft 377 kts 333°
2026-05-08 08:31 37.95659 30.63403 36242 ft 376 kts 333°
2026-05-08 08:31 38.00473 30.60786 36249 ft 376 kts 333°
2026-05-08 08:32 38.05290 30.58158 36253 ft 377 kts 333°
2026-05-08 08:32 38.10125 30.55511 36243 ft 379 kts 333°
2026-05-08 08:33 38.14960 30.52841 36243 ft 378 kts 332°
2026-05-08 08:33 38.19755 30.50203 36235 ft 378 kts 333°
2026-05-08 08:34 38.24584 30.47551 36230 ft 378 kts 333°
2026-05-08 08:34 38.29411 30.44893 36230 ft 378 kts 333°
2026-05-08 08:35 38.34246 30.42223 36231 ft 378 kts 333°
2026-05-08 08:35 38.39078 30.39560 36242 ft 379 kts 333°
2026-05-08 08:36 38.43920 30.36881 36235 ft 379 kts 333°
2026-05-08 08:36 38.48755 30.34198 36225 ft 379 kts 333°
2026-05-08 08:37 38.53590 30.31517 36217 ft 379 kts 333°
2026-05-08 08:37 38.58432 30.28839 36222 ft 379 kts 333°
2026-05-08 08:38 38.63277 30.26147 36219 ft 379 kts 332°
2026-05-08 08:38 38.68125 30.23445 36215 ft 380 kts 332°
2026-05-08 08:39 38.72944 30.20763 36214 ft 381 kts 332°
2026-05-08 08:39 38.77803 30.18050 36217 ft 381 kts 332°
2026-05-08 08:40 38.82668 30.15330 36219 ft 382 kts 332°
2026-05-08 08:40 38.87543 30.12593 36212 ft 383 kts 332°
2026-05-08 08:41 38.92437 30.09852 36214 ft 384 kts 332°
2026-05-08 08:41 38.96515 30.07567 36216 ft 385 kts 332°
2026-05-08 08:42 39.01440 30.04791 36215 ft 386 kts 332°
2026-05-08 08:42 39.06366 30.02002 36221 ft 387 kts 332°
2026-05-08 08:43 39.11310 29.99216 36223 ft 388 kts 332°
2026-05-08 08:43 39.16266 29.96428 36231 ft 388 kts 332°
2026-05-08 08:44 39.21192 29.93645 36235 ft 388 kts 332°
2026-05-08 08:44 39.26140 29.90845 36233 ft 388 kts 332°
2026-05-08 08:45 39.31099 29.88034 36225 ft 389 kts 332°
2026-05-08 08:45 39.36033 29.85229 36220 ft 389 kts 332°
2026-05-08 08:46 39.40992 29.82428 36215 ft 389 kts 332°
2026-05-08 08:46 39.45973 29.79634 36218 ft 390 kts 332°
2026-05-08 08:47 39.48580 29.78570 36214 ft 399 kts 346°
2026-05-08 08:47 39.51377 29.78304 36214 ft 404 kts 350°
2026-05-08 08:47 39.57016 29.77975 36213 ft 406 kts 351°
2026-05-08 08:48 39.62668 29.77672 36213 ft 407 kts 351°
2026-05-08 08:48 39.68335 29.77362 35900 ft 408 kts 351°
2026-05-08 08:49 39.71167 29.77205 35651 ft 407 kts 351°
2026-05-08 08:49 39.73966 29.77045 35405 ft 408 kts 351°
2026-05-08 08:49 39.76843 29.76880 34806 ft 409 kts 351°
2026-05-08 08:49 39.79659 29.76717 33968 ft 412 kts 351°
2026-05-08 08:50 39.82540 29.76553 33099 ft 415 kts 351°
2026-05-08 08:50 39.85434 29.76388 32187 ft 418 kts 352°
2026-05-08 08:50 39.88359 29.76219 31254 ft 422 kts 353°
2026-05-08 08:50 39.91307 29.76050 30342 ft 426 kts 354°
2026-05-08 08:51 39.94295 29.75878 29303 ft 432 kts 355°
2026-05-08 08:51 39.97290 29.75703 28196 ft 440 kts 355°
2026-05-08 08:51 40.00372 29.75526 27097 ft 446 kts 355°
2026-05-08 08:51 40.03492 29.75351 25910 ft 452 kts 355°
2026-05-08 08:52 40.06653 29.75173 24738 ft 457 kts 355°
2026-05-08 08:52 40.09848 29.74990 23519 ft 461 kts 355°
2026-05-08 08:52 40.13058 29.74804 22511 ft 461 kts 355°
2026-05-08 08:52 40.16247 29.74621 21665 ft 457 kts 355°
2026-05-08 08:53 40.19420 29.74440 20796 ft 454 kts 355°
2026-05-08 08:53 40.22556 29.74266 20035 ft 448 kts 355°
2026-05-08 08:53 40.25662 29.74095 19334 ft 443 kts 355°
2026-05-08 08:53 40.28716 29.73924 18609 ft 435 kts 355°
2026-05-08 08:54 40.31699 29.73750 17499 ft 423 kts 355°
2026-05-08 08:54 40.34563 29.73584 16840 ft 402 kts 356°
2026-05-08 08:54 40.37272 29.73430 16166 ft 392 kts 355°
2026-05-08 08:54 40.39998 29.73274 15511 ft 393 kts 356°
2026-05-08 08:55 40.42722 29.73115 14852 ft 391 kts 356°
2026-05-08 08:55 40.45431 29.72957 14233 ft 388 kts 356°
2026-05-08 08:55 40.48123 29.72801 13609 ft 386 kts 356°
2026-05-08 08:55 40.50803 29.72642 12998 ft 384 kts 356°
2026-05-08 08:56 40.53461 29.72487 12413 ft 380 kts 356°
2026-05-08 08:56 40.56109 29.72332 11661 ft 382 kts 356°
2026-05-08 08:56 40.58738 29.72178 11313 ft 372 kts 356°
2026-05-08 08:56 40.61263 29.72030 11180 ft 355 kts 356°
2026-05-08 08:57 40.63677 29.71891 11069 ft 340 kts 356°
2026-05-08 08:57 40.65998 29.71759 10950 ft 327 kts 356°
2026-05-08 08:57 40.68234 29.71631 10819 ft 314 kts 356°
2026-05-08 08:57 40.70341 29.71512 10580 ft 295 kts 356°
2026-05-08 08:58 40.72341 29.71396 10252 ft 290 kts 356°
2026-05-08 08:58 40.74351 29.71274 10018 ft 288 kts 356°
2026-05-08 08:58 40.76353 29.71150 9857 ft 288 kts 356°
2026-05-08 08:58 40.78356 29.71029 9735 ft 288 kts 356°
2026-05-08 08:59 40.80358 29.70910 9631 ft 288 kts 356°
2026-05-08 08:59 40.82363 29.70791 9521 ft 288 kts 356°
2026-05-08 08:59 40.84380 29.70671 9097 ft 292 kts 356°
2026-05-08 08:59 40.86406 29.70554 8695 ft 291 kts 356°
2026-05-08 09:00 40.88431 29.70437 8291 ft 288 kts 356°
2026-05-08 09:00 40.90420 29.70322 7658 ft 285 kts 356°
2026-05-08 09:00 40.92393 29.70207 7049 ft 282 kts 356°
2026-05-08 09:00 40.94373 29.70094 6578 ft 284 kts 356°
2026-05-08 09:01 40.96347 29.69979 6167 ft 284 kts 356°
2026-05-08 09:01 40.98234 29.69848 6047 ft 264 kts 352°
2026-05-08 09:01 40.99885 29.69092 5810 ft 246 kts 323°
2026-05-08 09:01 41.01003 29.67466 5665 ft 236 kts 296°
2026-05-08 09:02 41.01462 29.65382 5279 ft 241 kts 270°
2026-05-08 09:02 41.01132 29.63257 4841 ft 234 kts 243°
2026-05-08 09:02 41.00314 29.61400 4306 ft 234 kts 238°
2026-05-08 09:02 40.99470 29.59553 3832 ft 234 kts 238°
2026-05-08 09:03 40.98647 29.57745 3586 ft 224 kts 238°
2026-05-08 09:03 40.97912 29.56001 3489 ft 210 kts 243°
2026-05-08 09:03 40.97299 29.54336 3504 ft 195 kts 244°
2026-05-08 09:03 40.96721 29.52739 3511 ft 191 kts 244°
2026-05-08 09:04 40.96149 29.51168 3468 ft 189 kts 243°
2026-05-08 09:04 40.95574 29.49590 3250 ft 191 kts 243°
2026-05-08 09:04 40.94996 29.48011 2985 ft 190 kts 243°
2026-05-08 09:04 40.94430 29.46465 2713 ft 179 kts 243°
2026-05-08 09:05 40.93890 29.44988 2397 ft 178 kts 243°
2026-05-08 09:05 40.93370 29.43571 2172 ft 166 kts 244°
2026-05-08 09:05 40.92877 29.42224 1893 ft 157 kts 243°
2026-05-08 09:05 40.92419 29.40974 1659 ft 147 kts 244°
2026-05-08 09:06 40.91980 29.39778 1438 ft 142 kts 244°
2026-05-08 09:06 40.91559 29.38614 1237 ft 139 kts 244°
2026-05-08 09:06 40.91121 29.37472 1073 ft 139 kts 243°
2026-05-08 09:06 40.90712 29.36317 925 ft 139 kts 246°
2026-05-08 09:07 40.90294 29.35180 637 ft 140 kts 243°
2026-05-08 09:07 40.89870 29.34026 365 ft 139 kts 244°
2026-05-08 09:07 40.89477 29.32958 308 ft 115 kts 245°
2026-05-08 09:07 40.89207 29.32217 300 ft 65 kts 244°
2026-05-08 09:08 40.89121 29.31806 305 ft 32 kts 270°
2026-05-08 09:08 40.89131 29.31631 305 ft 15 kts 277°
2026-05-08 09:08 40.89138 29.31513 303 ft 8 kts 276°
2026-05-08 09:08 40.89140 29.31494 303 ft 1 kts 282°
2026-05-08 09:09 40.89194 29.31432 303 ft 15 kts 338°
2026-05-08 09:09 40.89300 29.31437 304 ft 17 kts
2026-05-08 09:09 40.89424 29.31408 306 ft 21 kts 334°
2026-05-08 09:09 40.89564 29.31319 313 ft 22 kts 334°
2026-05-08 09:10 40.89694 29.31234 320 ft 20 kts 333°
2026-05-08 09:10 40.89789 29.31148 320 ft 12 kts 318°
2026-05-08 09:10 40.89859 29.31102 319 ft 15 kts 335°
2026-05-08 09:10 40.89991 29.31016 320 ft 24 kts 334°
2026-05-08 09:11 40.90134 29.30925 321 ft 23 kts 334°
2026-05-08 09:11 40.90226 29.30878 321 ft 11 kts 11°
2026-05-08 09:11 40.90266 29.30948 321 ft 9 kts 64°
2026-05-08 09:11 40.90292 29.31019 321 ft 8 kts 64°
2026-05-08 09:12 40.90314 29.31079 321 ft 7 kts 64°
2026-05-08 09:12 40.90334 29.31131 320 ft 7 kts 64°
2026-05-08 09:12 40.90369 29.31225 320 ft 12 kts 64°
2026-05-08 09:12 40.90404 29.31320 321 ft 11 kts 64°
2026-05-08 09:13 40.90434 29.31403 321 ft 9 kts 64°
2026-05-08 09:13 40.90464 29.31484 319 ft 10 kts 64°
2026-05-08 09:13 40.90492 29.31561 321 ft 9 kts 64°
2026-05-08 09:13 40.90514 29.31620 321 ft 4 kts 65°
2026-05-08 09:14 40.90506 29.31644 321 ft 3 kts 132°
2026-05-08 09:14 40.90488 29.31658 321 ft 4 kts 154°
2026-05-08 09:14 40.90458 29.31677 321 ft 3 kts 154°
2026-05-08 09:14 40.90448 29.31684 321 ft 0 kts 154°